Bartlesville, OK

4:57 PM CDT on September 23, 2017 (GMT -0500)
Bartlesville Municipal

Weather History for KBVO - December, 2011

Change the Weather History Date:

Saturday, December 24, 2011

  Actual Average Record
Temperature  
Mean Temperature 36 °F -  
Max Temperature 52 °F 45 °F 79 °F (1955)
Min Temperature 19 °F 23 °F -5 °F (1966)
Degree Days  
Heating Degree Days 30    
Moisture  
Dew Point 21 °F    
Average Humidity 72    
Maximum Humidity 92    
Minimum Humidity 30    
Precipitation  
Precipitation 0.00 in - - ()
Sea Level Pressure  
Sea Level Pressure 30.43 in    
Wind  
Wind Speed 2 mph (SW)    
Max Wind Speed 10 mph    
Max Gust Speed -    
Visibility 10 miles    
Events      
Averages and records for this station are not official NWS values.
T = Trace of Precipitation, MM = Missing Value Source: NWS Daily Summary

Daily Weather History Graph

Daily Weather History Graph

Search for Another Location

Airport or City:

Trip Planner

Search our weather history database for the weather conditions in past years. The results will help you decide how hot, cold, wet, or windy it might be!

Date:

Astronomy

Dec. 24, 2011 Rise Set
Actual Time 7:34 AM CST 5:12 PM CST
Civil Twilight 7:05 AM CST 5:41 PM CST
Nautical Twilight 6:32 AM CST 6:14 PM CST
Astronomical Twilight 6:01 AM CST 6:45 PM CST
Moon 7:23 AM CST (12/24) 5:27 PM CST (12/24)
Length of Visible Light 10h 36m
Length of Day
9h 38m
New Moon, 0% of the Moon is Illuminated
Dec 24
New Moon
Dec 24
New
Jan 1
First Quarter
Jan 9
Full
Jan 16
Last Quarter

Hourly Weather History & Observations

Time (CST) Temp. Windchill Dew Point Humidity Pressure Visibility Wind Dir Wind Speed Gust Speed Precip Events Conditions
12:53 AM 21.0 °F - 18.0 °F 88% 30.44 in 10.0 mi Calm Calm - N/A   Clear
1:53 AM 19.9 °F - 18.0 °F 92% 30.43 in 10.0 mi Calm Calm - N/A   Clear
2:53 AM 23.0 °F 17.0 °F 21.0 °F 92% 30.43 in 10.0 mi SSW 4.6 mph - N/A   Clear
3:53 AM 19.0 °F - 17.1 °F 92% 30.42 in 10.0 mi Calm Calm - N/A   Clear
4:53 AM 19.0 °F 13.9 °F 17.1 °F 92% 30.43 in 10.0 mi WSW 3.5 mph - N/A   Clear
5:53 AM 19.9 °F - 18.0 °F 92% 30.45 in 10.0 mi Calm Calm - N/A   Clear
6:53 AM 19.9 °F - 18.0 °F 92% 30.47 in 10.0 mi Calm Calm - N/A   Clear
7:53 AM 21.9 °F 15.7 °F 18.0 °F 85% 30.48 in 10.0 mi South 4.6 mph - N/A   Clear
8:53 AM 28.0 °F - 23.0 °F 81% 30.49 in 10.0 mi Calm Calm - N/A   Clear
9:53 AM 33.1 °F 30.0 °F 26.1 °F 75% 30.48 in 10.0 mi Variable 3.5 mph - N/A   Clear
10:53 AM 39.0 °F 34.0 °F 25.0 °F 57% 30.47 in 10.0 mi WSW 6.9 mph - N/A   Clear
11:53 AM 44.1 °F 40.8 °F 26.1 °F 49% 30.45 in 10.0 mi WSW 5.8 mph - N/A   Clear
12:53 PM 48.0 °F - 24.1 °F 39% 30.43 in 10.0 mi Calm Calm - N/A   Clear
1:53 PM 51.1 °F - 21.9 °F 32% 30.40 in 10.0 mi SSW 10.4 mph - N/A   Clear
2:53 PM 52.0 °F - 21.0 °F 30% 30.38 in 10.0 mi SW 6.9 mph - N/A   Clear
3:53 PM 52.0 °F - 21.0 °F 30% 30.38 in 10.0 mi WSW 6.9 mph - N/A   Clear
4:53 PM 46.9 °F - 21.9 °F 37% 30.39 in 10.0 mi West 3.5 mph - N/A   Clear
5:53 PM 35.1 °F - 23.0 °F 61% 30.40 in 10.0 mi Calm Calm - N/A   Clear
6:53 PM 30.9 °F - 24.1 °F 76% 30.43 in 10.0 mi Calm Calm - N/A   Clear
7:53 PM 28.0 °F - 21.9 °F 78% 30.44 in 10.0 mi Calm Calm - N/A   Clear
8:53 PM 26.1 °F - 21.9 °F 84% 30.43 in 10.0 mi Calm Calm - N/A   Clear
9:53 PM 23.0 °F - 21.0 °F 92% 30.44 in 10.0 mi Calm Calm - N/A   Clear
10:53 PM 21.9 °F 17.2 °F 19.9 °F 92% 30.43 in 10.0 mi SSW 3.5 mph - N/A   Clear
11:53 PM 21.9 °F - 19.9 °F 92% 30.43 in 7.0 mi Calm Calm - N/A   Clear